| time (UTC) | temp C | wind direction | speed KPH | gust KPH | rain 1hr cm | rain 24hr cm | rain mn cm | humidity % | barometer mb |
| 20260504025205 | 12 | 257 | 11.3 | 24.1 | 0.00 | 0.81 | 0.23 | 91 | 1004.3 |
| 20260504024705 | 12 | 239 | 11.3 | 20.9 | 0.00 | 0.81 | 0.23 | 91 | 1004.3 |
| 20260504024205 | 12 | 247 | 12.9 | 24.1 | 0.00 | 0.81 | 0.23 | 91 | 1004.3 |
| 20260504023707 | 12 | 268 | 14.5 | 24.1 | 0.00 | 0.81 | 0.23 | 91 | 1004.4 |
| 20260504023205 | 12 | 290 | 9.7 | 12.9 | 0.00 | 0.81 | 0.23 | 91 | 1004.4 |
| 20260504022705 | 12 | 258 | 16.1 | 25.7 | 0.00 | 0.81 | 0.23 | 91 | 1004.4 |
| 20260504022207 | 12 | 247 | 9.7 | 22.5 | 0.00 | 0.81 | 0.23 | 91 | 1004.3 |
| 20260504021707 | 12 | 251 | 12.9 | 27.4 | 0.00 | 0.81 | 0.23 | 91 | 1004.3 |
| 20260504020207 | 12 | 261 | 11.3 | 22.5 | 0.00 | 0.81 | 0.23 | 91 | 1004.4 |
| 20260504015705 | 12 | 261 | 11.3 | 25.7 | 0.00 | 0.81 | 0.23 | 91 | 1004.3 |
| 20260504013205 | 12 | 224 | 9.7 | 11.3 | 0.00 | 0.81 | 0.23 | 91 | 1004.1 |
| 20260504012706 | 12 | 203 | 8.0 | 12.9 | 0.00 | 0.81 | 0.23 | 91 | 1004.1 |
| 20260504011705 | 12 | 217 | 4.8 | 9.7 | 0.00 | 0.81 | 0.23 | 91 | 1004.1 |
| 20260504010707 | 12 | 191 | 4.8 | 9.7 | 0.00 | 0.81 | 0.23 | 91 | 1004.2 |
| 20260504010205 | 12 | 198 | 4.8 | 9.7 | 0.00 | 0.81 | 0.23 | 91 | 1004.2 |
| 20260504005207 | 12 | 198 | 1.6 | 9.7 | 0.00 | 0.81 | 0.23 | 91 | 1004.2 |
| 20260504004707 | 12 | 198 | 4.8 | 8.0 | 0.00 | 0.81 | 0.23 | 91 | 1004.2 |
| 20260504004205 | 12 | 184 | 0.0 | 0.0 | 0.00 | 0.81 | 0.23 | 91 | 1004.2 |
| 20260504003205 | 12 | 183 | 0.0 | 1.6 | 0.03 | 0.81 | 0.23 | 91 | 1004.2 |
| 20260504002705 | 12 | 183 | 0.0 | 3.2 | 0.03 | 0.81 | 0.23 | 91 | 1004.2 |
| 20260504002205 | 12 | 183 | 3.2 | 4.8 | 0.03 | 0.81 | 0.23 | 90 | 1004.1 |
| 20260504001706 | 12 | 173 | 4.8 | 9.7 | 0.03 | 0.81 | 0.23 | 90 | 1004.1 |
| 20260504000705 | 12 | 170 | 4.8 | 8.0 | 0.03 | 0.81 | 0.23 | 90 | 1004.0 |
| 20260504000208 | 12 | 151 | 6.4 | 9.7 | 0.03 | 0.81 | 0.23 | 90 | 1004.0 |
| 20260503235206 | 12 | 155 | 8.0 | 9.7 | 0.05 | 0.81 | 0.23 | 90 | 1004.2 |
| 20260503234705 | 12 | 172 | 4.8 | 8.0 | 0.08 | 0.81 | 0.23 | 90 | 1004.2 |
| 20260503234206 | 12 | 140 | 4.8 | 8.0 | 0.10 | 0.81 | 0.23 | 90 | 1004.3 |
| 20260503233705 | 12 | 140 | 4.8 | 8.0 | 0.08 | 0.79 | 0.18 | 90 | 1004.3 |
| 20260503233206 | 12 | 140 | 3.2 | 8.0 | 0.08 | 0.79 | 0.18 | 90 | 1004.3 |
| 20260503225705 | 12 | 118 | 8.0 | 9.7 | 0.18 | 0.76 | 0.15 | 90 | 1004.8 |
| 20260503225205 | 12 | 119 | 8.0 | 9.7 | 0.23 | 0.76 | 0.15 | 90 | 1004.8 |
| 20260503224707 | 12 | 117 | 8.0 | 11.3 | 0.18 | 0.74 | 0.13 | 90 | 1004.9 |
| 20260503222206 | 12 | 110 | 9.7 | 11.3 | 0.15 | 0.69 | 0.08 | 90 | 1005.0 |
| 20260503221705 | 12 | 120 | 6.4 | 8.0 | 0.18 | 0.69 | 0.08 | 90 | 1005.4 |
| 20260503221206 | 12 | 146 | 4.8 | 8.0 | 0.23 | 0.69 | 0.08 | 90 | 1005.4 |
| 20260503220205 | 12 | 124 | 4.8 | 8.0 | 0.18 | 0.61 | 0.03 | 89 | 1005.6 |
| 20260503212205 | 12 | 92 | 1.6 | 3.2 | 0.25 | 0.51 | 0.51 | 88 | 1005.9 |
| 20260503211706 | 12 | 91 | 1.6 | 1.6 | 0.23 | 0.48 | 0.48 | 88 | 1005.9 |
| 20260503211205 | 12 | 91 | 0.0 | 0.0 | 0.18 | 0.46 | 0.46 | 88 | 1005.8 |
| 20260503210205 | 12 | 91 | 0.0 | 0.0 | 0.18 | 0.43 | 0.43 | 88 | 1005.9 |
| 20260503205704 | 12 | 91 | 1.6 | 4.8 | 0.13 | 0.38 | 0.38 | 88 | 1006.0 |
| 20260503205205 | 12 | 23 | 1.6 | 3.2 | 0.13 | 0.36 | 0.36 | 88 | 1006.0 |
| 20260503204205 | 12 | 20 | 0.0 | 1.6 | 0.13 | 0.33 | 0.33 | 87 | 1005.6 |
| 20260503202209 | 12 | 21 | 4.8 | 4.8 | 0.15 | 0.28 | 0.28 | 87 | 1005.8 |
| 20260503201705 | 12 | 21 | 3.2 | 4.8 | 0.15 | 0.28 | 0.28 | 87 | 1005.8 |
| 20260503194205 | 13 | 355 | 8.0 | 9.7 | 0.08 | 0.18 | 0.18 | 85 | 1006.3 |
| 20260503193706 | 13 | 293 | 3.2 | 4.8 | 0.05 | 0.15 | 0.15 | 85 | 1006.7 |
| 20260503193205 | 13 | 22 | 1.6 | 4.8 | 0.03 | 0.13 | 0.13 | 84 | 1006.7 |
| 20260503192705 | 13 | 23 | 3.2 | 8.0 | 0.00 | 0.10 | 0.10 | 84 | 1006.4 |
| 20260503192206 | 13 | 22 | 4.8 | 11.3 | 0.00 | 0.10 | 0.10 | 84 | 1006.4 |
| 20260503191705 | 13 | 350 | 8.0 | 9.7 | 0.00 | 0.10 | 0.10 | 83 | 1006.4 |
| 20260503191204 | 13 | 339 | 6.4 | 9.7 | 0.00 | 0.10 | 0.10 | 83 | 1006.0 |
| 20260503185705 | 13 | 353 | 3.2 | 3.2 | 0.00 | 0.10 | 0.10 | 82 | 1006.0 |
| 20260503185206 | 13 | 353 | 4.8 | 8.0 | 0.00 | 0.10 | 0.10 | 81 | 1005.9 |
| 20260503184205 | 13 | 0 | 8.0 | 9.7 | 0.00 | 0.10 | 0.10 | 81 | 1005.8 |
| 20260503183705 | 13 | 7 | 4.8 | 9.7 | 0.00 | 0.10 | 0.10 | 81 | 1005.7 |
| 20260503183205 | 13 | 9 | 8.0 | 9.7 | 0.00 | 0.10 | 0.10 | 80 | 1005.7 |
| 20260503180205 | 14 | 353 | 4.8 | 8.0 | 0.00 | 0.10 | 0.10 | 80 | 1005.9 |
| 20260503174205 | 15 | 9 | 1.6 | 4.8 | 0.00 | 0.10 | 0.10 | 79 | 1006.2 |
| 20260503173204 | 15 | 9 | 3.2 | 4.8 | 0.00 | 0.10 | 0.10 | 79 | 1006.2 |
| 20260503172705 | 15 | 9 | 3.2 | 4.8 | 0.00 | 0.10 | 0.10 | 78 | 1006.3 |
| 20260503171705 | 15 | 8 | 3.2 | 4.8 | 0.00 | 0.10 | 0.10 | 77 | 1006.3 |
| 20260503170205 | 15 | 16 | 4.8 | 11.3 | 0.00 | 0.10 | 0.10 | 75 | 1006.3 |
| 20260503150704 | 17 | 288 | 6.4 | 9.7 | 0.00 | 0.10 | 0.10 | 67 | 1007.6 |
| 20260503131204 | 16 | 215 | 4.8 | 8.0 | 0.00 | 0.10 | 0.10 | 79 | 1008.8 |
| 20260503120206 | 14 | 254 | 4.8 | 8.0 | 0.10 | 0.10 | 0.10 | 83 | 1009.3 |
| 20260503110206 | 15 | 262 | 8.0 | 11.3 | 0.00 | 0.00 | 0.00 | 72 | 1009.6 |
| 20260503081207 | 12 | 312 | 3.2 | 8.0 | 0.00 | 0.00 | 0.00 | 83 | 1009.9 |
| 20260503080206 | 12 | 243 | 4.8 | 9.7 | 0.00 | 0.00 | 0.00 | 83 | 1009.9 |
| 20260503072205 | 11 | 292 | 3.2 | 4.8 | 0.00 | 0.00 | 0.00 | 86 | 1009.8 |
| 20260503071706 | 11 | 294 | 6.4 | 9.7 | 0.00 | 0.00 | 0.00 | 87 | 1009.7 |
| 20260503070705 | 11 | 321 | 3.2 | 4.8 | 0.00 | 0.00 | 0.00 | 87 | 1009.6 |
| 20260503070205 | 11 | 318 | 4.8 | 8.0 | 0.00 | 0.00 | 0.00 | 87 | 1009.6 |
| 20260503060206 | 10 | 323 | 4.8 | 9.7 | 0.00 | 0.00 | 0.00 | 88 | 1009.4 |
| 20260503054705 | 10 | 320 | 14.5 | 20.9 | 0.00 | 0.00 | 0.00 | 87 | 1009.5 |
| 20260503053708 | 10 | 307 | 8.0 | 20.9 | 0.00 | 0.00 | 0.00 | 87 | 1009.5 |
| 20260503053206 | 10 | 310 | 9.7 | 22.5 | 0.00 | 0.00 | 0.00 | 87 | 1009.4 |
| 20260503045706 | 11 | 291 | 11.3 | 16.1 | 0.00 | 0.00 | 0.00 | 88 | 1009.4 |
| 20260503045207 | 11 | 292 | 8.0 | 16.1 | 0.00 | 0.00 | 0.00 | 88 | 1009.4 |
| 20260503044206 | 11 | 287 | 8.0 | 12.9 | 0.00 | 0.00 | 0.00 | 88 | 1009.2 |
| 20260503043705 | 10 | 278 | 8.0 | 16.1 | 0.00 | 0.00 | 0.00 | 88 | 1009.2 |
| 20260503042205 | 10 | 242 | 3.2 | 8.0 | 0.00 | 0.00 | 0.00 | 87 | 1009.4 |
| 20260503041705 | 10 | 237 | 1.6 | 4.8 | 0.00 | 0.00 | 0.00 | 87 | 1009.4 |
| 20260503035705 | 10 | 189 | 1.6 | 9.7 | 0.00 | 0.00 | 0.00 | 86 | 1009.6 |
| 20260503035205 | 10 | 167 | 6.4 | 9.7 | 0.00 | 0.00 | 0.00 | 85 | 1009.6 |
| 20260503034205 | 10 | 158 | 4.8 | 4.8 | 0.00 | 0.00 | 0.00 | 85 | 1009.3 |
| 20260503033206 | 10 | 166 | 6.4 | 9.7 | 0.00 | 0.00 | 0.00 | 84 | 1009.1 |
| 20260503032206 | 10 | 178 | 8.0 | 9.7 | 0.00 | 0.00 | 0.00 | 84 | 1009.1 |
| 20260503031706 | 10 | 188 | 4.8 | 9.7 | 0.00 | 0.00 | 0.00 | 84 | 1009.2 |
| 20260503030205 | 10 | 198 | 8.0 | 9.7 | 0.00 | 0.00 | 0.00 | 83 | 1009.5 |